Location: Battersea Observatory
(44.4318°N, 76.3841°W)
Time: 05:00:09
(UTC-05:00)

Vanguard 2 - Visible Passes

Search period start: 10 December 2022 00:00
Search period end: 20 December 2022 00:00
Orbit: 553 x 2932 km, 32.9° (Epoch: 09 December)

Date Brightness Start Highest point End Pass type
(mag) Time Alt. Az. Time Alt. Az. Time Alt. Az.
10 Dec 10.3 16:43:15 10° WSW 16:52:39 48° S 17:07:07 10° ESE visible
10 Dec 10.5 18:51:12 10° WSW 19:02:59 48° S 19:14:34 21° SE visible
10 Dec 11.0 21:01:11 10° W 21:13:43 32° SSW 21:15:57 31° SSW visible
11 Dec 10.3 17:00:06 10° WSW 17:09:37 49° S 17:24:15 10° ESE visible
11 Dec 10.6 19:08:20 10° W 19:20:00 44° SSW 19:31:12 21° SE visible
11 Dec 11.2 21:18:57 10° W 21:30:31 26° SSW 21:32:36 26° SSW visible
12 Dec 10.3 17:17:02 10° WSW 17:26:36 48° S 17:41:16 10° ESE visible
12 Dec 10.8 19:25:33 10° W 19:36:59 39° SSW 19:48:02 19° SSE visible
12 Dec 11.4 21:37:12 10° WSW 21:47:18 21° SW 21:49:27 20° SSW visible
13 Dec 10.4 17:34:01 10° WSW 17:43:37 46° S 17:58:10 10° ESE visible
13 Dec 11.0 19:42:54 10° W 19:53:57 34° SSW 20:05:06 16° SSE visible
13 Dec 11.7 21:56:24 10° WSW 22:04:01 15° SW 22:06:33 15° SSW visible
14 Dec 10.5 17:51:05 10° WSW 18:00:38 43° S 18:14:55 10° SE visible
14 Dec 11.2 20:00:29 10° W 20:10:52 28° SSW 20:22:30 13° SSE visible
15 Dec 10.7 18:08:13 10° WSW 18:17:39 38° SSW 18:31:27 10° SE visible
15 Dec 11.4 20:18:26 10° WSW 20:27:46 22° SSW 20:39:11 10° S visible
16 Dec 10.9 18:25:29 10° WSW 18:34:40 33° SSW 18:47:43 10° SE visible
16 Dec 11.6 20:37:03 10° WSW 20:44:39 17° SW 20:53:31 10° S visible
17 Dec 11.1 18:42:56 10° WSW 18:51:40 28° SSW 19:03:38 10° SSE visible
17 Dec 11.8 20:57:39 10° SW 21:01:32 11° SW 21:05:41 10° SSW visible
18 Dec 10.6 16:51:30 10° WSW 16:59:00 36° S 17:10:31 10° SE visible
18 Dec 11.3 19:00:41 10° WSW 19:08:39 22° SSW 19:19:04 10° SSE visible
19 Dec 10.8 17:08:41 10° WSW 17:16:01 31° SSW 17:26:55 10° SE visible
19 Dec 11.6 19:19:00 10° WSW 19:25:37 17° SSW 19:33:45 10° S visible
